H1 CPF 2 NER 2023 10 27 9 300 01 glonass135 H2 1600801 9135 41330 2023 10 27 0 0 0 2023 10 30 23 45 0 900 1 1 0 0 0 1 H9 10 0 60244 0.00000 0 18271712.664 -11865103.209 13321876.333 10 0 60244 900.00000 0 17022126.576 -10564874.925 15833254.605 10 0 60244 1800.00000 0 15708235.333 -8936803.161 18038075.789 10 0 60244 2700.00000 0 14391594.323 -7001020.861 19893611.497 10 0 60244 3600.00000 0 13130320.604 -4790167.991 21363864.623 10 0 60244 4500.00000 0 11976648.504 -2348296.230 22420263.867 10 0 60244 5400.00000 0 10974748.225 270701.274 23042218.341 10 0 60244 6300.00000 0 10158898.097 3005072.050 23217521.813 10 0 60244 7200.00000 0 9552086.689 5787518.256 22942598.600 10 0 60244 8100.00000 0 9165103.348 8547748.545 22222585.852 10 0 60244 9000.00000 0 8996155.706 11215163.886 21071249.698 10 0 60244 9900.00000 0 9031030.991 13721567.266 19510735.604 10 0 60244 10800.00000 0 9243795.423 16003785.738 17571156.279 10 0 60244 11700.00000 0 9598003.410 18006096.230 15290023.497 10 0 60244 12600.00000 0 10048366.740 19682353.936 12711533.322 10 0 60244 13500.00000 0 10542814.224 20997734.016 9885717.279 10 0 60244 14400.00000 0 11024855.256 21930012.942 6867474.992 10 0 60244 15300.00000 0 11436147.321 22470334.857 3715506.637 10 0 60244 16200.00000 0 11719158.133 22623429.902 491166.022 10 0 60244 17100.00000 0 11819808.528 22407274.650 -2742742.824 10 0 60244 18000.00000 0 11689982.487 21852208.679 -5923201.020 10 0 60244 18900.00000 0 11289796.025 20999544.657 -8988216.714 10 0 60244 19800.00000 0 10589526.801 19899731.252 -11878047.730 10 0 60244 20700.00000 0 9571120.782 18610147.405 -14536379.461 10 0 60244 21600.00000 0 8229210.493 17192622.432 -16911433.659 10 0 60244 22500.00000 0 6571600.451 15710788.003 -18956985.330 10 0 60244 23400.00000 0 4619198.321 14227375.086 -20633267.151 10 0 60244 24300.00000 0 2405394.091 12801570.853 -21907743.493 10 0 60244 25200.00000 0 -25086.853 11486547.537 -22755739.141 10 0 60244 26100.00000 0 -2617808.647 10327267.383 -23160911.004 10 0 60244 27000.00000 0 -5310659.646 9358655.549 -23115554.515 10 0 60244 27900.00000 0 -8036211.733 8604216.741 -22620739.850 10 0 60244 28800.00000 0 -10724305.683 8075152.277 -21686276.456 10 0 60244 29700.00000 0 -13304754.968 7770012.832 -20330507.741 10 0 60244 30600.00000 0 -15710055.832 7674899.479 -18579940.941 10 0 60244 31500.00000 0 -17877991.489 7764202.590 -16468720.223 10 0 60244 32400.00000 0 -19754023.087 8001845.651 -14037953.937 10 0 60244 33300.00000 0 -21293369.200 8342980.060 -11334909.523 10 0 60244 34200.00000 0 -22462688.680 8736058.337 -8412092.010 10 0 60244 35100.00000 0 -23241298.421 9125197.502 -5326224.097 10 0 60244 36000.00000 0 -23621876.888 9452732.600 -2137147.548 10 0 60244 36900.00000 0 -23610625.687 9661852.542 1093332.916 10 0 60244 37800.00000 0 -23226883.907 9699207.302 4302641.100 10 0 60244 38700.00000 0 -22502212.597 9517376.833 7428633.531 10 0 60244 39600.00000 0 -21478988.579 9077098.058 10410793.527 10 0 60244 40500.00000 0 -20208566.965 8349156.403 13191392.701 10 0 60244 41400.00000 0 -18749089.385 7315862.396 15716598.202 10 0 60244 42300.00000 0 -17163029.345 5972051.034 17937505.134 10 0 60244 43200.00000 0 -15514576.784 4325561.346 19811075.093 10 0 60244 44100.00000 0 -13866970.257 2397174.938 21300963.595 10 0 60244 45000.00000 0 -12279887.258 220014.529 22378221.132 10 0 60244 45900.00000 0 -10807000.656 -2161574.371 23021854.894 10 0 60244 46800.00000 0 -9493802.368 -4693614.342 23219240.548 10 0 60244 47700.00000 0 -8375784.537 -7314495.632 22966375.997 10 0 60244 48600.00000 0 -7477053.812 -9957303.686 22267971.722 10 0 60244 49500.00000 0 -6809436.681 -12552380.061 21137375.029 10 0 60244 50400.00000 0 -6372113.645 -15030012.049 19596328.435 10 0 60244 51300.00000 0 -6151798.184 -17323140.473 17674565.373 10 0 60244 52200.00000 0 -6123453.815 -19369973.684 15409249.462 10 0 60244 53100.00000 0 -6251519.927 -21116398.920 12844266.658 10 0 60244 54000.00000 0 -6491595.466 -22518089.965 10029382.708 10 0 60244 54900.00000 0 -6792509.866 -23542222.174 7019281.256 10 0 60244 55800.00000 0 -7098693.720 -24168721.880 3872500.833 10 0 60244 56700.00000 0 -7352748.390 -24390996.615 650291.398 10 0 60244 57600.00000 0 -7498104.752 -24216114.426 -2584586.775 10 0 60244 58500.00000 0 -7481656.892 -23664423.968 -5769097.409 10 0 60244 59400.00000 0 -7256257.337 -22768631.095 -8841170.346 10 0 60244 60300.00000 0 -6782966.010 -21572371.048 -11740925.688 10 0 60244 61200.00000 0 -6032955.630 -20128337.087 -14411854.466 10 0 60244 62100.00000 0 -4988991.027 -18496045.501 -16801931.351 10 0 60244 63000.00000 0 -3646418.227 -16739332.462 -18864636.589 10 0 60244 63900.00000 0 -2013620.354 -14923689.448 -20559866.409 10 0 60244 64800.00000 0 -111920.337 -13113550.551 -21854713.856 10 0 60244 65700.00000 0 2025065.940 -11369646.523 -22724105.011 10 0 60244 66600.00000 0 4352598.962 -9746537.060 -23151278.673 10 0 60244 67500.00000 0 6816458.285 -8290424.686 -23128101.088 10 0 60244 68400.00000 0 9354989.714 -7037341.097 -22655210.623 10 0 60244 69300.00000 0 11901471.209 -6011780.650 -21741990.739 10 0 60244 70200.00000 0 14386698.782 -5225836.486 -20406372.938 10 0 60244 71100.00000 0 16741684.727 -4678873.366 -18674474.530 10 0 60244 72000.00000 0 18900356.115 -4357748.684 -16580079.162 10 0 60244 72900.00000 0 20802141.839 -4237570.135 -14163970.880 10 0 60244 73800.00000 0 22394341.356 -4282956.146 -11473135.132 10 0 60244 74700.00000 0 23634177.553 -4449744.302 -8559842.537 10 0 60244 75600.00000 0 24490449.453 -4687074.498 -5480633.344 10 0 60244 76500.00000 0 24944717.242 -4939758.126 -2295222.219 10 0 60244 77400.00000 0 24991971.525 -5150832.922 934655.505 10 0 60244 78300.00000 0 24640760.173 -5264195.597 4146434.042 10 0 60244 79200.00000 0 23912768.583 -5227201.348 7277921.203 10 0 60244 80100.00000 0 22841871.729 -4993120.961 10268493.450 10 0 60244 81000.00000 0 21472698.148 -4523352.272 13060259.484 10 0 60244 81900.00000 0 19858766.000 -3789293.083 15599170.655 10 0 60244 82800.00000 0 18060268.856 -2773796.729 17836057.533 10 0 60244 83700.00000 0 16141603.064 -1472148.769 19727573.521 10 0 60244 84600.00000 0 14168739.012 107477.007 21237028.157 10 0 60244 85500.00000 0 12206544.895 1944103.628 22335094.733 10 0 60245 0.00000 0 10316173.554 4004575.056 23000379.101 10 0 60245 900.00000 0 8552619.212 6244696.586 23219839.217 10 0 60245 1800.00000 0 6962547.528 8610843.527 22989046.421 10 0 60245 2700.00000 0 5582485.368 11041977.273 22312284.115 10 0 60245 3600.00000 0 4437448.007 13471984.466 21202480.053 10 0 60245 4500.00000 0 3540060.025 15832244.975 19680972.769 10 0 60245 5400.00000 0 2890207.133 18054323.153 17777115.112 10 0 60245 6300.00000 0 2475233.972 20072671.278 15527720.968 10 0 60245 7200.00000 0 2270680.208 21827232.730 12976364.369 10 0 60245 8100.00000 0 2241524.523 23265835.954 10172543.230 10 0 60245 9000.00000 0 2343884.438 24346278.286 7170722.948 10 0 60245 9900.00000 0 2527100.285 25038011.143 4029277.923 10 0 60245 10800.00000 0 2736114.820 25323354.502 809351.611 10 0 60245 11700.00000 0 2914046.892 25198188.266 -2426342.253 10 0 60245 12600.00000 0 3004848.823 24672090.285 -5614752.845 10 0 60245 13500.00000 0 2955933.147 23767914.423 -8693734.520 10 0 60245 14400.00000 0 2720655.437 22520826.136 -11603272.387 10 0 60245 15300.00000 0 2260545.957 20976836.361 -14286665.662 10 0 60245 16200.00000 0 1547193.704 19190896.150 -16691644.289 10 0 60245 17100.00000 0 563701.414 17224633.192 -18771395.870 10 0 60245 18000.00000 0 -694351.317 15143826.646 -20485482.055 10 0 60245 18900.00000 0 -2218478.366 13015727.517 -21800626.203 10 0 60245 19800.00000 0 -3987409.574 10906338.009 -22691357.066 10 0 60245 20700.00000 0 -5967760.420 8877764.483 -23140496.448 10 0 60245 21600.00000 0 -8115220.711 6985754.954 -23139482.203 10 0 60245 22500.00000 0 -10376212.266 5277523.657 -22688521.321 10 0 60245 23400.00000 0 -12689945.953 3789952.552 -21796571.307 10 0 60245 24300.00000 0 -14990791.875 2548243.368 -20481151.339 10 0 60245 25200.00000 0 -17210863.700 1565074.434 -18767987.942 10 0 60245 26100.00000 0 -19282709.402 840295.286 -16690502.966 10 0 60245 27000.00000 0 -21141996.554 361169.335 -14289154.515 10 0 60245 27900.00000 0 -22730080.782 103152.024 -11610644.099 10 0 60245 28800.00000 0 -23996351.051 31169.667 -8707005.758 10 0 60245 29700.00000 0 -24900254.897 101343.338 -5634594.938 10 0 60245 30600.00000 0 -25412920.202 263083.914 -2452996.714 10 0 60245 31500.00000 0 -25518306.892 461469.067 776125.584 10 0 60245 32400.00000 0 -25213841.525 639801.540 3990219.305 10 0 60245 33300.00000 0 -24510509.221 742240.711 7127046.370 10 0 60245 34200.00000 0 -23432399.797 716396.640 10125879.260 10 0 60245 35100.00000 0 -22015727.507 515777.584 12928666.659 10 0 60245 36000.00000 0 -20307365.407 101988.157 15481146.942 10 0 60245 36900.00000 0 -18362955.290 -553414.179 17733888.820 10 0 60245 37800.00000 0 -16244671.379 -1467482.447 19643239.940 10 0 60245 38700.00000 0 -14018730.088 -2644924.115 21172165.972 10 0 60245 39600.00000 0 -11752748.437 -4077666.709 22290964.740 10 0 60245 40500.00000 0 -9513059.829 -5744964.644 22977842.157 10 0 60245 41400.00000 0 -7362097.546 -7614044.697 23219339.130 10 0 60245 42300.00000 0 -5355953.736 -9641265.299 23010601.092 10 0 60245 43200.00000 0 -3542214.469 -11773743.657 22355484.495 10 0 60245 44100.00000 0 -1958160.342 -13951385.234 21266497.326 10 0 60245 45000.00000 0 -629407.341 -16109233.125 19764573.603 10 0 60245 45900.00000 0 430955.373 -18180041.165 17878684.739 10 0 60245 46800.00000 0 1222694.439 -20096964.680 15645293.735 10 0 60245 47700.00000 0 1758213.842 -21796257.136 13107661.240 10 0 60245 48600.00000 0 2061797.773 -23219859.908 10315015.580 10 0 60245 49500.00000 0 2168346.320 -24317776.118 7321601.860 10 0 60245 50400.00000 0 2121657.203 -25050127.866 4185628.066 10 0 60245 51300.00000 0 1972326.388 -25388809.015 968128.640 10 0 60245 52200.00000 0 1775357.102 -25318662.454 -2268231.921 10 0 60245 53100.00000 0 1587579.606 -24838130.779 -5460391.100 10 0 60245 54000.00000 0 1464992.630 -23959351.755 -8546130.747 10 0 60245 54900.00000 0 1460140.963 -22707693.719 -11465304.047 10 0 60245 55800.00000 0 1619642.330 -21120750.141 -14161021.502 10 0 60245 56700.00000 0 1981970.254 -19246835.892 -16580771.371 10 0 60245 57600.00000 0 2575588.503 -17143049.040 -18677451.505 10 0 60245 58500.00000 0 3417517.476 -14872980.578 -20410291.613 10 0 60245 59400.00000 0 4512394.079 -12504169.243 -21745647.641 10 0 60245 60300.00000 0 5852065.417 -10105409.060 -22657652.856 10 0 60245 61200.00000 0 7415733.622 -7744023.083 -23128713.421 10 0 60245 62100.00000 0 9170645.681 -5483217.609 -23149839.657 10 0 60245 63000.00000 0 11073299.033 -3379627.146 -22720807.567 10 0 60245 63900.00000 0 13071111.984 -1481151.850 -21850148.634 10 0 60245 64800.00000 0 15104488.650 174823.683 -20554969.243 10 0 60245 65700.00000 0 17109191.727 1562757.858 -18860604.279 10 0 60245 66600.00000 0 19018923.794 2669772.514 -16800112.559 10 0 60245 67500.00000 0 20768009.353 3495934.597 -14413624.621 10 0 60245 68400.00000 0 22294065.888 4053989.851 -11747556.026 10 0 60245 69300.00000 0 23540552.858 4368562.122 -8853701.826 10 0 60245 70200.00000 0 24459092.828 4474854.069 -5788229.887 10 0 60245 71100.00000 0 25011468.592 4416905.687 -2610592.611 10 0 60245 72000.00000 0 25171213.681 4245485.267 617621.975 10 0 60245 72900.00000 0 24924730.638 4015702.432 3833877.771 10 0 60245 73800.00000 0 24271891.096 3784444.285 6975894.193 10 0 60245 74700.00000 0 23226093.127 3607742.738 9982843.024 10 0 60245 75600.00000 0 21813773.804 3538183.762 12796515.977 10 0 60245 76500.00000 0 20073397.291 3622467.317 15362441.213 10 0 60245 77400.00000 0 18053960.382 3899220.381 17630928.017 10 0 60245 78300.00000 0 15813077.071 4397154.844 19558020.342 10 0 60245 79200.00000 0 13414720.935 5133647.813 21106341.703 10 0 60245 80100.00000 0 10926718.056 6113804.398 22245815.796 10 0 60245 81000.00000 0 8418093.311 7330043.260 22954249.528 10 0 60245 81900.00000 0 5956378.872 8762223.697 23217767.471 10 0 60245 82800.00000 0 3604995.386 10378310.796 23031089.287 10 0 60245 83700.00000 0 1420813.457 12135552.982 22397644.290 10 0 60245 84600.00000 0 -548004.134 13982125.045 21329520.121 10 0 60245 85500.00000 0 -2263790.245 15859170.223 19847245.309 10 0 60246 0.00000 0 -3700716.901 17703157.785 17979408.698 10 0 60246 900.00000 0 -4845639.128 19448460.104 15762120.429 10 0 60246 1800.00000 0 -5698401.689 21030039.839 13238326.008 10 0 60246 2700.00000 0 -6271598.046 22386138.269 10456982.046 10 0 60246 3600.00000 0 -6589789.383 23460849.203 7472111.035 10 0 60246 4500.00000 0 -6688217.194 24206470.389 4341752.070 10 0 60246 5400.00000 0 -6611063.778 24585532.026 1126827.964 10 0 60246 6300.00000 0 -6409334.633 24572415.277 -2110048.739 10 0 60246 7200.00000 0 -6138453.318 24154490.885 -5305806.604 10 0 60246 8100.00000 0 -5855671.986 23332728.315 -8398157.751 10 0 60246 9000.00000 0 -5617408.983 22121748.449 -11326826.143 10 0 60246 9900.00000 0 -5476628.193 20549316.809 -14034736.148 10 0 60246 10800.00000 0 -5480373.040 18655298.288 -16469136.729 10 0 60246 11700.00000 0 -5667561.325 16490117.526 -18582638.161 10 0 60246 12600.00000 0 -6067135.629 14112790.137 -20334140.150 10 0 60246 13500.00000 0 -6696648.566 11588608.202 -21689632.918 10 0 60246 14400.00000 0 -7561343.246 8986577.800 -22622855.677 10 0 60246 15300.00000 0 -8653767.955 6376716.565 -23115800.093 10 0 60246 16200.00000 0 -9953941.132 3827324.582 -23159049.784 10 0 60246 17100.00000 0 -11430059.354 1402342.518 -22751950.233 10 0 60246 18000.00000 0 -13039718.004 -841093.345 -21902606.969 10 0 60246 18900.00000 0 -14731592.837 -2854798.342 -20627713.227 10 0 60246 19800.00000 0 -16447511.450 -4601301.072 -18952211.455 10 0 60246 20700.00000 0 -18124827.466 -6055147.994 -16908796.230 10 0 60246 21600.00000 0 -19698997.852 -7203698.988 -14537268.949 10 0 60246 22500.00000 0 -21106255.540 -8047383.148 -11883757.336 10 0 60246 23400.00000 0 -22286265.703 -8599406.710 -8999815.310 10 0 60246 24300.00000 0 -23184654.998 -8884927.732 -5941420.824 10 0 60246 25200.00000 0 -23755308.489 -8939734.251 -2767891.099 10 0 60246 26100.00000 0 -23962338.774 -8808483.147 459263.795 10 0 60246 27000.00000 0 -23781645.608 -8542574.999 3677527.088 10 0 60246 27900.00000 0 -23202001.332 -8197755.094 6824578.602 10 0 60246 28800.00000 0 -22225617.164 -7831541.928 9839492.389 10 0 60246 29700.00000 0 -20868166.884 -7500591.403 12663906.193 10 0 60246 30600.00000 0 -19158266.796 -7258107.383 15243140.898 10 0 60246 31500.00000 0 -17136433.296 -7151407.155 17527249.135 10 0 60246 32400.00000 0 -14853560.666 -7219743.789 19471973.693 10 0 60246 33300.00000 0 -12368981.412 -7492476.660 21039598.096 10 0 60246 34200.00000 0 -9748188.451 -7987667.071 22199673.665 10 0 60246 35100.00000 0 -7060312.264 -8711158.328 22929609.596 10 0 60246 36000.00000 0 -4375456.132 -9656179.801 23215114.971 10 0 60246 36900.00000 0 -1761998.512 -10803492.913 23050484.067 10 0 60246 37800.00000 0 716026.907 -12122074.725 22438719.058 10 0 60246 38700.00000 0 3001365.855 -13570312.523 21391486.871 10 0 60246 39600.00000 0 5045692.457 -15097661.490 19928909.864 10 0 60246 40500.00000 0 6811383.606 -16646698.068 18079192.950 10 0 60246 41400.00000 0 8272844.898 -18155484.673 15878092.802 10 0 60246 42300.00000 0 9417332.589 -19560147.807 13368237.905 10 0 60246 43200.00000 0 10245236.853 -20797561.983 10598311.264 10 0 60246 44100.00000 0 10769814.091 -21808026.645 7622110.581 10 0 60246 45000.00000 0 11016379.269 -22537822.760 4497503.603 10 0 60246 45900.00000 0 11020992.274 -22941540.213 1285298.831 10 0 60246 46800.00000 0 10828694.065 -22984076.259 -1951945.990 10 0 60246 47700.00000 0 10491367.874 -22642218.886 -5151153.470 10 0 60246 48600.00000 0 10065317.100 -21905746.472 -8249969.006 10 0 60246 49500.00000 0 9608663.928 -20777995.674 -11187990.346 10 0 60246 50400.00000 0 9178680.587 -19275872.328 -13907958.665 10 0 60246 51300.00000 0 8829168.076 -17429304.088 -16356886.459 10 0 60246 52200.00000 0 8607995.048 -15280157.460 -18487099.052 10 0 60246 53100.00000 0 8554902.453 -12880664.906 -20257168.504 10 0 60246 54000.00000 0 8699667.862 -10291428.436 -21632721.313 10 0 60246 54900.00000 0 9060707.629 -7579083.963 -22587104.210 10 0 60246 55800.00000 0 9644176.102 -4813724.786 -23101895.482 10 0 60246 56700.00000 0 10443599.584 -2066192.292 -23167252.683 10 0 60246 57600.00000 0 11440059.955 594652.980 -22782090.952 10 0 60246 58500.00000 0 12602919.449 3104566.399 -21954089.618 10 0 60246 59400.00000 0 13891055.281 5406351.488 -20699528.119 10 0 60246 60300.00000 0 15254551.477 7451989.354 -19042955.471 10 0 60246 61200.00000 0 16636776.184 9204378.348 -17016700.680 10 0 60246 62100.00000 0 17976756.817 10638613.602 -14660234.341 10 0 60246 63000.00000 0 19211753.148 11742755.467 -12019394.362 10 0 60246 63900.00000 0 20279920.415 12518057.268 -9145491.235 10 0 60246 64800.00000 0 21122950.949 12978645.307 -6094310.399 10 0 60246 65700.00000 0 21688583.967 13150666.791 -2925031.051 10 0 60246 66600.00000 0 21932878.765 13070943.355 300917.729 10 0 60246 67500.00000 0 21822156.581 12785188.226 3521041.625 10 0 60246 68400.00000 0 21334530.242 12345863.008 6672983.986 10 0 60246 69300.00000 0 20460957.865 11809764.755 9695724.168 10 0 60246 70200.00000 0 19205776.661 11235444.975 12530748.809 10 0 60246 71100.00000 0 17586694.347 10680568.910 15123174.148 10 0 60246 72000.00000 0 15634238.017 10199325.688 17422798.531 10 0 60246 72900.00000 0 13390682.612 9839997.658 19385065.644 10 0 60246 73800.00000 0 10908502.410 9642790.518 20971920.784 10 0 60246 74700.00000 0 8248408.470 9638015.037 22152544.320 10 0 60246 75600.00000 0 5477051.903 9844696.643 22903948.810 10 0 60246 76500.00000 0 2664486.471 10269671.597 23211428.524 10 0 60246 77400.00000 0 -118505.958 10907208.486 23068852.643 10 0 60246 78300.00000 0 -2803117.796 11739172.139 22478796.042 10 0 60246 79200.00000 0 -5325135.282 12735724.728 21452504.333 10 0 60246 80100.00000 0 -7627367.417 13856536.472 20009692.665 10 0 60246 81000.00000 0 -9661784.029 15052457.035 18178180.752 10 0 60246 81900.00000 0 -11391274.224 16267579.165 15993369.660 10 0 60246 82800.00000 0 -12790951.803 17441609.279 13497568.910 10 0 60246 83700.00000 0 -13848952.758 18512446.131 10739185.605 10 0 60246 84600.00000 0 -14566690.997 19418859.319 7771790.229 10 0 60246 85500.00000 0 -14958561.150 20103154.309 4653076.666 10 0 60247 0.00000 0 -15051100.690 20513710.580 1443736.840 10 0 60247 900.00000 0 -14881646.770 20607284.406 -1793729.473 10 0 60247 1800.00000 0 -14496544.863 20350976.679 -4996241.234 10 0 60247 2700.00000 0 -13948985.960 19723781.461 -8101379.696 10 0 60247 3600.00000 0 -13296564.860 18717647.315 -11048618.918 10 0 60247 4500.00000 0 -12598664.601 17338005.281 -13780519.303 10 0 60247 5400.00000 0 -11913779.337 15603739.906 -16243859.141 10 0 60247 6300.00000 0 -11296890.663 13546603.765 -18390680.867 10 0 60247 7200.00000 0 -10797009.790 11210099.761 -20179230.714 10 0 60247 8100.00000 0 -10454990.578 8647878.209 -21574773.016 10 0 60247 9000.00000 0 -10301706.464 5921716.211 -22550263.309 10 0 60247 9900.00000 0 -10356668.372 3099164.380 -23086867.496 10 0 60247 10800.00000 0 -10627141.592 250959.666 -23174317.747 10 0 60247 11700.00000 0 -11107798.134 -2551687.575 -22811099.204 10 0 60247 12600.00000 0 -11780918.187 -5239819.234 -22004464.981 10 0 60247 13500.00000 0 -12617131.087 -7749354.854 -20770280.324 10 0 60247 14400.00000 0 -13576663.462 -10023508.485 -19132700.048 10 0 60247 15300.00000 0 -14611041.036 -12014897.748 -17123686.459 10 0 60247 16200.00000 0 -15665171.695 -13687259.145 -14782377.902 10 0 60247 17100.00000 0 -16679721.673 -15016700.256 -12154320.742 10 0 60247 18000.00000 0 -17593684.697 -15992438.891 -9290580.107 10 0 60247 18900.00000 0 -18347036.047 -16617000.707 -6246746.811 10 0 60247 19800.00000 0 -18883360.235 -16905869.311 -3081859.761 10 0 60247 20700.00000 0 -19152342.204 -16886605.522 142735.348 10 0 60247 21600.00000 0 -19112017.897 -16597474.430 3364569.190 10 0 60247 22500.00000 0 -18730690.107 -16085639.118 6521251.307 10 0 60247 23400.00000 0 -17988429.568 -15404997.702 9551669.147 10 0 60247 24300.00000 0 -16878098.489 -14613754.884 12397161.092 10 0 60247 25200.00000 0 -15405853.495 -13771829.968 15002641.603 10 0 60247 26100.00000 0 -13591106.458 -12938209.801 17317657.511 10 0 60247 27000.00000 0 -11465943.969 -12168357.194 19297355.998 10 0 60247 27900.00000 0 -9074028.376 -11511782.891 20903346.437 10 0 60247 28800.00000 0 -6469024.589 -11009882.334 22104440.197 10 0 60247 29700.00000 0 -3712616.201 -10694127.518 22877254.731 10 0 60247 30600.00000 0 -872191.318 -10584689.625 23206670.597 10 0 60247 31500.00000 0 1981707.839 -10689550.451 23086132.529 10 0 60247 32400.00000 0 4778067.691 -11004140.602 22517788.343 10 0 60247 33300.00000 0 7448108.766 -11511520.697 21512462.183 10 0 60247 34200.00000 0 9927902.866 -12183099.410 20089461.470 10 0 60247 35100.00000 0 12160794.094 -12979859.758 18276219.870 10 0 60247 36000.00000 0 14099523.447 -13854043.685 16107781.645 10 0 60247 36900.00000 0 15707968.447 -14751225.443 13626135.813 10 0 60247 37800.00000 0 16962424.827 -15612687.455 10879411.678 10 0 60247 38700.00000 0 17852376.146 -16377998.985 7920950.237 10 0 60247 39600.00000 0 18380718.414 -16987688.640 4808268.902 10 0 60247 40500.00000 0 18563429.839 -17385897.120 1601939.537 10 0 60247 41400.00000 0 18428699.346 -17522896.752 -1635598.020 10 0 60247 42300.00000 0 18015550.740 -17357369.562 -4841262.892 10 0 60247 43200.00000 0 17372021.164 -16858345.579 -7952575.464 10 0 60247 44100.00000 0 16552971.772 -16006717.355 -10908889.305 10 0 60247 45000.00000 0 15617624.515 -14796264.846 -13652587.107 10 0 60247 45900.00000 0 14626930.719 -13234145.767 -16130215.805 10 0 60247 46800.00000 0 13640884.295 -11340829.561 -18293537.538 10 0 60247 47700.00000 0 12715894.589 -9149477.022 -20100474.985 10 0 60247 48600.00000 0 11902330.993 -6704791.349 -21515932.222 10 0 60247 49500.00000 0 11242343.650 -4061388.829 -22512475.075 10 0 60247 50400.00000 0 10768052.403 -1281757.680 -23070858.092 10 0 60247 51300.00000 0 10500179.978 1566109.281 -23180388.615 10 0 60247 52200.00000 0 10447186.181 4411309.101 -22839121.883 10 0 60247 53100.00000 0 10604938.367 7182742.021 -22053884.433 10 0 60247 54000.00000 0 10956930.640 9811830.940 -20840126.564 10 0 60247 54900.00000 0 11475041.042 12235134.497 -19221607.749 10 0 60247 55800.00000 0 12120793.406 14396746.015 -17229922.111 10 0 60247 56700.00000 0 12847069.485 16250379.923 -14903873.941 10 0 60247 57600.00000 0 13600198.319 17761060.571 -12288715.959 10 0 60247 58500.00000 0 14322334.156 18906345.001 -9435265.529 10 0 60247 59400.00000 0 14954022.508 19677030.871 -6398916.178 10 0 60247 60300.00000 0 15436846.223 20077322.087 -3238563.645 10 0 60247 61200.00000 0 15716040.393 20124447.239 -15467.206 10 0 60247 62100.00000 0 15742966.372 19847748.569 3207931.919 10 0 60247 63000.00000 0 15477341.273 19287281.061 6369212.561 10 0 60247 63900.00000 0 14889129.541 18491981.348 9407173.258 10 0 60247 64800.00000 0 13960017.366 17517483.759 12263006.970 10 0 60247 65700.00000 0 12684407.995 16423675.189 14881428.978 10 0 60247 66600.00000 0 11069895.836 15272091.043 17211736.942 10 0 60247 67500.00000 0 9137198.689 14123260.836 19208783.591 10 0 60247 68400.00000 0 6919549.707 13034113.918 20833844.111 10 0 60247 69300.00000 0 4461572.820 12055553.194 22055362.272 10 0 60247 70200.00000 0 1817686.535 11230297.726 22849561.455 10 0 60247 71100.00000 0 -949899.687 10591084.013 23200909.135 10 0 60247 72000.00000 0 -3773515.445 10159301.092 23102425.793 10 0 60247 72900.00000 0 -6582591.198 9944116.770 22555831.909 10 0 60247 73800.00000 0 -9306347.490 9942132.191 21571529.400 10 0 60247 74700.00000 0 -11876501.478 10137580.116 20168416.715 10 0 60247 75600.00000 0 -14229879.454 10503059.780 18373539.775 10 0 60247 76500.00000 0 -16310827.330 11000778.703 16221583.937 10 0 60247 77400.00000 0 -18073318.785 11584250.439 13754215.302 10 0 60247 78300.00000 0 -19482672.813 12200377.716 11019282.742 10 0 60247 79200.00000 0 -20516808.244 12791833.658 8069895.017 10 0 60247 80100.00000 0 -21166981.901 13299640.597 4963390.289 10 0 60247 81000.00000 0 -21437978.644 13665836.906 1760217.897 10 0 60247 81900.00000 0 -21347744.745 13836117.968 -1477245.513 10 0 60247 82800.00000 0 -20926479.764 13762337.903 -4685921.548 10 0 60247 83700.00000 0 -20215225.418 13404764.238 -7803272.227 10 0 60247 84600.00000 0 -19264011.594 12733988.032 -10768533.039 10 0 60247 85500.00000 0 -18129638.850 11732406.611 -13523911.230 99